GFSFLT1_sfc_wetblb_000.txt.gz
Wetbulb
54.50 56.12 58.86 60.05 61.24 62.80 62.98 63.85 63.65 63.96 64.50 63.25 63.19 61.89 61.95 61.88 62.49 62.35 61.19 60.86 60.35 61.67 61.95 62.15 61.76 63.68 63.87 64.16 64.05 64.80 64.97 64.20
53.75 54.79 57.21 56.02 55.24 59.41 60.69 62.02 62.30 62.01 62.09 61.72 61.68 60.74 60.31 60.09 60.61 61.63 60.28 59.68 59.86 60.19 60.07 60.69 61.10 61.80 62.06 62.49 62.73 63.34 63.71 63.61
54.97 56.00 56.26 54.05 52.62 54.18 58.09 59.79 60.62 60.25 59.98 59.98 60.35 59.91 60.23 59.83 59.60 60.06 60.04 59.57 59.71 60.27 60.20 60.54 61.42 62.38 61.78 62.17 61.98 62.10 62.51 62.61
53.43 52.06 53.31 51.78 52.57 53.46 56.47 58.52 59.03 59.01 58.84 58.86 59.66 59.58 59.97 59.80 59.68 59.90 60.67 60.20 60.07 59.93 59.94 60.79 61.27 60.88 60.60 60.96 61.06 61.45 61.52 62.20
53.25 54.50 54.85 54.45 51.82 54.06 56.85 57.82 58.38 58.95 58.84 59.15 59.26 59.76 59.89 59.49 60.19 60.63 61.18 61.06 60.87 60.51 60.38 61.08 60.03 60.15 60.11 59.93 60.24 60.84 60.81 60.91
54.85 55.07 54.69 51.77 52.73 54.91 56.58 59.52 58.93 58.95 58.60 58.58 59.21 59.28 59.39 59.51 60.27 60.95 61.55 61.86 60.89 60.17 60.30 60.06 59.98 59.85 59.68 59.09 59.30 59.28 59.89 60.00
53.29 53.46 51.88 52.85 54.02 55.42 56.88 58.55 58.63 58.74 57.91 57.96 58.19 59.46 59.73 60.16 60.52 60.55 60.95 61.71 61.76 60.23 59.79 59.56 59.57 59.13 58.81 58.54 58.10 58.97 58.66 59.00
52.34 52.16 52.16 53.56 55.17 56.64 57.82 58.13 58.47 58.16 57.55 57.65 58.38 58.50 59.35 60.03 60.82 60.99 61.47 61.39 62.12 60.82 59.55 58.78 59.04 58.43 57.85 57.36 57.44 58.56 58.87 59.09
50.95 51.98 52.03 54.25 55.72 56.56 57.17 57.12 57.34 56.93 56.98 56.58 57.00 57.57 58.21 59.33 60.68 61.82 61.97 62.11 61.38 59.74 58.90 58.72 58.75 58.09 57.72 57.26 57.52 57.53 57.88 58.80
51.14 50.58 52.09 54.47 55.70 56.60 56.45 57.04 56.84 57.18 56.43 57.41 57.91 57.89 58.52 59.38 60.35 61.71 62.47 62.22 61.21 59.65 58.66 58.92 58.46 57.73 57.12 56.92 57.38 56.78 57.36 58.38
50.53 50.19 51.42 54.27 55.44 56.30 56.70 56.67 57.19 57.35 57.18 57.91 57.76 57.58 58.00 58.02 58.68 59.59 60.08 60.55 61.27 60.65 59.70 59.12 58.34 57.51 56.48 56.40 57.26 57.65 56.64 57.24
50.36 50.09 51.81 54.26 55.40 56.79 56.49 56.63 56.99 57.65 57.98 57.19 56.80 56.26 56.00 56.70 57.62 58.47 59.16 60.68 60.88 60.29 59.96 59.11 58.12 57.73 56.84 57.18 58.02 58.65 58.71 57.26
49.94 50.57 53.26 55.21 55.97 56.37 56.47 56.75 57.13 57.54 58.35 57.96 57.47 56.28 56.40 57.30 57.32 57.76 58.42 59.45 60.82 60.12 59.23 58.57 58.06 57.85 57.54 57.48 58.04 58.15 58.66 58.37
50.24 51.78 54.45 53.94 55.09 55.90 56.33 56.62 56.38 57.38 57.83 58.06 57.81 56.46 56.58 55.86 56.28 56.22 56.58 57.37 59.16 59.07 58.75 58.54 58.04 58.17 58.13 58.15 58.53 58.45 58.68 59.24
50.63 51.94 52.67 52.95 54.06 55.37 55.77 55.77 55.97 56.86 57.69 58.24 57.30 57.39 56.67 56.02 56.14 55.92 55.50 55.80 57.38 57.54 57.74 57.64 58.32 58.85 59.24 59.03 59.15 59.08 58.97 59.98
51.07 52.42 52.64 53.45 53.94 55.09 55.13 54.82 55.53 56.71 57.68 57.87 57.45 57.79 56.32 55.69 56.14 56.28 55.42 55.54 56.30 57.34 58.05 58.59 59.40 60.11 59.88 59.86 60.10 59.66 59.67 60.76
50.82 52.09 52.25 53.11 53.66 54.57 54.87 54.31 55.10 55.85 56.84 57.47 57.43 58.08 56.38 56.50 56.64 56.40 55.94 55.92 57.29 57.81 58.50 58.82 59.59 59.83 60.19 60.19 60.61 60.86 61.08 60.83
51.24 51.71 52.00 52.97 53.88 54.39 54.80 54.58 54.52 55.04 56.32 57.02 58.23 58.62 57.49 56.95 57.14 56.68 56.36 56.74 57.70 58.02 58.51 58.99 59.44 60.11 60.55 60.49 61.25 62.26 61.94 60.76
51.77 51.36 52.10 52.75 53.45 53.69 53.94 54.52 54.51 54.65 56.47 56.05 59.41 59.05 57.99 56.71 57.47 57.11 56.89 56.79 57.24 58.15 58.85 59.27 59.39 59.75 60.06 61.30 61.48 61.72 61.42 61.55
51.98 51.94 51.09 51.70 52.39 52.60 52.98 54.19 54.28 54.51 56.31 56.44 58.90 59.63 58.32 57.20 57.47 57.09 57.32 57.12 57.77 58.42 59.56 59.61 59.72 59.64 60.13 60.45 60.93 61.66 61.46 61.11

GFSFLT1_sfc_wetblb_006.txt.gz
Wetbulb
63.82 64.43 64.91 65.12 68.16 68.94 69.92 72.12 73.62 72.87 71.39 72.02 72.21 70.89 71.00 70.78 70.99 70.28 70.19 69.64 69.44 68.61 68.31 68.05 68.54 67.57 67.26 67.62 68.06 67.92 67.81 66.78
63.66 64.38 64.80 65.27 66.67 68.43 69.91 70.94 73.00 73.69 71.63 71.48 71.00 70.49 70.45 69.92 69.66 70.22 69.50 68.79 68.88 68.70 67.71 67.67 67.88 67.00 66.86 67.44 67.09 67.25 67.63 67.74
63.91 65.27 65.89 66.30 66.31 68.37 69.84 71.01 72.31 72.89 73.25 71.66 70.82 70.02 69.22 69.24 68.41 69.68 69.73 68.76 68.85 68.58 68.11 67.40 67.44 67.84 66.50 66.77 66.97 66.74 66.63 66.64
63.42 64.16 64.74 66.29 66.92 68.40 70.06 70.66 72.94 73.12 73.11 72.45 70.79 70.49 69.44 68.56 68.02 69.24 69.80 69.27 68.82 68.47 68.31 68.30 68.65 69.20 67.90 66.49 66.61 66.16 65.86 66.29
62.58 64.03 65.12 66.43 67.34 68.78 70.50 71.03 72.22 73.17 72.59 71.77 70.33 69.34 68.80 67.67 68.53 70.11 69.92 69.98 69.44 69.33 70.07 70.05 69.32 70.68 69.07 67.07 66.47 66.68 65.49 65.68
62.87 64.19 65.66 67.23 68.32 68.25 69.74 69.52 71.29 72.65 72.68 71.42 69.36 68.57 67.88 67.99 68.77 69.18 69.78 69.95 69.63 70.03 69.54 68.95 69.54 69.21 67.56 65.75 66.48 64.94 64.81 64.59
63.04 63.89 65.24 66.97 68.75 68.72 68.59 69.02 70.22 72.05 72.81 70.93 70.27 69.65 68.15 68.43 68.66 68.77 69.38 69.67 69.63 70.08 69.34 69.13 68.92 65.98 66.03 67.01 65.73 65.45 64.36 63.94
61.64 63.81 65.89 67.02 68.24 68.89 67.81 68.62 70.93 71.85 71.06 70.12 68.09 67.88 68.10 68.56 68.34 68.80 69.40 69.63 69.28 68.99 68.61 67.84 65.49 65.34 66.40 66.27 65.37 65.71 64.51 64.20
63.12 64.82 65.43 66.12 67.00 67.08 67.25 68.08 71.70 70.84 68.62 66.54 66.03 65.59 66.86 67.34 68.15 69.52 69.59 69.35 68.98 68.81 67.72 66.99 67.20 65.08 63.62 64.95 65.39 64.52 64.08 64.93
62.49 64.79 65.15 65.11 65.80 66.65 67.57 68.64 69.94 69.86 67.85 68.28 66.83 66.62 66.66 67.98 69.06 69.24 69.62 69.03 68.60 68.08 67.63 66.86 65.84 63.89 64.62 64.96 64.32 64.25 64.19 64.76
62.04 63.86 64.17 65.10 65.35 66.53 67.64 69.11 69.03 68.81 69.00 67.84 68.04 68.05 68.12 66.47 66.92 67.19 68.50 68.09 67.98 67.53 66.89 66.27 65.57 65.84 65.48 65.13 64.62 63.13 61.72 63.84
62.28 63.42 63.52 64.61 65.35 66.86 68.27 68.27 67.79 68.06 68.32 67.41 67.12 64.36 63.95 66.20 66.65 67.96 67.28 66.94 66.56 66.43 66.62 66.11 66.09 65.72 65.29 64.63 64.11 64.07 63.78 62.35
61.82 63.66 63.77 64.74 65.77 66.69 67.63 67.71 67.74 67.98 68.28 68.12 66.24 65.85 65.59 66.67 66.59 65.75 66.47 67.30 66.27 65.54 66.18 65.58 65.53 65.14 65.21 65.01 63.98 64.13 64.42 63.67
62.62 63.60 64.11 64.44 65.89 66.52 67.04 67.15 67.12 67.85 67.53 67.67 67.46 67.07 65.60 65.46 65.44 64.64 64.78 65.51 65.51 65.28 65.07 65.38 65.80 65.96 65.17 64.64 64.75 64.50 65.38 65.33
61.85 62.25 62.98 63.84 64.62 65.53 66.06 66.12 66.00 67.02 66.85 67.10 67.54 67.70 66.34 65.23 64.70 65.45 63.80 64.32 63.72 64.45 65.37 65.48 66.10 66.17 65.86 65.65 65.42 65.28 65.01 64.83
62.27 62.80 63.20 63.54 64.35 65.04 64.97 65.61 65.63 66.25 66.19 67.07 67.56 67.55 65.68 65.38 65.31 65.17 64.70 64.31 63.68 65.72 65.57 65.65 65.63 65.76 66.25 66.55 66.06 65.41 65.65 65.28
62.21 62.90 63.63 63.76 64.53 64.80 65.35 65.29 65.19 65.36 66.28 67.15 67.20 67.06 65.71 65.41 65.69 65.75 64.59 64.99 64.24 65.06 65.17 65.27 66.19 65.93 65.89 65.97 65.47 65.79 65.77 64.87
62.17 62.75 63.51 64.48 64.98 65.32 65.92 65.50 64.62 65.35 66.78 66.82 66.69 66.80 66.35 66.04 65.42 64.69 64.66 64.88 64.36 64.48 64.43 65.92 66.13 66.18 65.65 65.99 66.46 65.55 65.57 65.00
61.85 62.66 63.84 64.49 65.13 65.32 65.22 64.34 64.44 65.16 66.01 66.82 66.64 66.33 66.09 65.82 65.40 64.82 64.54 64.87 64.80 63.95 63.66 64.55 65.44 65.39 66.11 66.29 64.99 64.33 64.63 64.70
62.06 62.65 63.39 63.90 64.36 64.41 63.80 64.08 64.07 64.74 65.81 66.16 66.30 66.40 66.45 65.81 65.28 65.21 64.83 64.19 64.61 63.75 64.03 64.13 64.36 65.47 65.81 65.11 63.92 62.87 63.03 63.77

GFSFLT1_sfc_wetblb_009.txt.gz
Wetbulb
63.09 62.81 63.61 64.95 66.34 68.09 69.68 74.15 75.30 74.00 72.27 71.92 73.61 72.56 71.97 71.62 71.48 72.16 72.50 70.15 70.92 70.11 69.25 69.28 68.70 67.26 68.37 67.55 67.85 67.84 67.26 67.85
63.08 62.74 63.79 65.31 66.48 66.92 70.35 71.70 74.91 76.10 72.73 70.67 71.94 71.93 71.81 70.86 71.37 72.69 70.98 69.26 70.30 70.00 68.68 68.88 70.25 68.13 68.33 67.60 66.90 69.07 67.42 67.60
63.06 63.44 64.44 65.70 66.82 67.65 68.94 72.79 75.10 75.68 76.01 71.83 72.59 72.30 70.65 71.74 70.79 70.98 70.34 69.43 70.60 69.75 70.40 68.72 68.56 67.93 67.93 68.54 68.16 68.13 68.55 67.05
62.63 63.17 64.53 65.79 67.34 68.12 69.10 72.56 75.39 75.62 74.58 76.03 74.50 74.79 72.10 70.61 69.94 69.59 70.55 70.24 70.37 68.98 69.06 68.86 70.08 69.81 68.22 67.80 67.17 67.12 66.14 65.14
62.26 63.09 65.34 65.94 67.61 69.16 72.93 74.52 75.36 75.72 75.78 75.55 73.41 71.81 71.01 69.88 69.22 71.15 70.31 70.94 70.95 69.90 68.65 70.28 70.22 69.57 69.08 67.88 68.07 67.80 65.85 65.90
62.38 63.51 66.69 68.92 69.59 70.73 72.93 70.80 74.49 75.80 75.55 74.66 72.98 71.18 70.33 68.92 68.82 69.55 70.78 70.60 70.34 69.34 69.04 69.81 70.69 69.78 69.80 68.45 65.86 65.81 66.24 63.79
64.28 63.72 65.87 68.77 70.84 72.68 72.22 74.16 73.31 75.32 75.94 73.81 73.43 74.30 69.95 68.76 68.84 69.22 69.90 69.97 69.86 70.00 69.39 69.79 70.23 69.54 67.92 66.85 66.33 67.79 65.68 64.60
63.22 64.97 66.01 68.49 71.78 73.63 73.91 73.25 74.70 75.71 74.05 74.52 71.38 69.69 69.33 68.81 68.86 68.72 69.56 69.74 69.42 69.96 69.44 69.06 69.37 67.70 66.42 66.76 66.75 66.32 66.46 66.31
63.23 64.18 66.84 66.96 69.77 71.01 72.75 72.19 74.09 73.38 71.91 70.29 69.04 67.39 68.60 68.02 68.57 69.58 69.50 69.71 69.99 69.56 68.63 67.75 67.87 68.04 67.24 66.73 65.89 63.23 64.91 66.59
61.69 63.76 65.32 68.22 68.82 69.93 70.18 70.72 73.78 73.59 72.25 71.52 70.02 69.57 67.96 68.06 68.28 69.66 69.81 69.41 69.26 68.86 68.11 67.10 67.51 67.75 66.12 65.20 65.09 63.94 64.17 66.38
60.98 62.36 64.87 67.86 68.02 68.73 68.93 69.94 72.11 73.43 73.09 71.38 70.37 69.45 68.76 67.26 67.04 67.53 68.76 68.54 68.27 68.19 67.74 67.04 66.90 66.86 65.60 66.17 65.61 63.99 63.08 64.09
61.49 61.73 67.01 67.10 67.75 68.89 69.74 70.63 71.56 71.71 72.24 70.30 71.43 66.93 64.99 65.81 67.84 67.45 67.47 67.48 66.91 66.83 67.18 66.78 66.95 66.66 66.07 65.59 65.77 64.76 63.96 62.57
60.55 61.88 66.76 67.14 67.95 68.61 70.18 70.23 70.25 70.63 71.25 71.27 67.36 68.42 66.19 66.50 66.56 66.72 67.78 68.27 66.75 65.66 66.57 66.15 66.24 67.28 65.94 65.65 64.50 64.36 66.02 64.99
61.52 66.43 66.69 66.91 68.04 68.89 68.96 68.36 68.66 68.74 68.54 68.60 69.10 67.29 66.17 65.19 65.49 65.48 66.11 66.55 66.04 65.91 65.64 65.97 66.37 66.29 65.66 66.31 65.31 64.97 65.99 66.06
63.99 64.81 65.12 66.05 66.96 67.44 67.63 67.66 67.16 67.83 67.79 67.55 67.92 67.95 67.42 66.32 65.53 65.52 64.94 65.06 66.22 65.70 65.79 65.92 66.53 66.79 66.38 66.41 65.89 65.82 66.14 65.31
63.81 64.80 65.28 65.83 66.40 66.78 66.80 66.84 66.46 67.02 67.06 67.43 67.77 67.96 66.20 65.82 65.86 65.46 64.94 64.63 64.83 65.90 65.87 66.21 66.36 65.83 66.13 66.84 68.08 66.85 66.26 66.44
63.91 64.93 65.52 65.70 65.93 66.37 66.69 66.62 66.40 66.71 66.65 67.35 67.66 67.46 66.52 66.50 67.03 66.85 65.65 66.98 64.92 65.45 65.61 65.70 65.86 65.98 65.92 66.23 66.61 65.53 66.02 65.79
64.13 64.57 65.10 65.61 65.99 66.61 67.20 66.96 66.23 66.08 66.87 66.84 66.86 66.72 66.75 66.94 66.51 65.82 65.57 65.84 64.93 64.81 64.95 65.56 65.41 65.57 65.64 66.13 66.04 66.30 65.79 65.12
63.64 64.30 65.23 65.53 66.05 66.34 66.23 65.74 65.42 65.83 66.39 67.04 66.38 66.22 66.01 66.64 66.08 65.39 65.29 65.48 64.88 64.23 64.47 64.53 64.36 64.67 66.30 66.56 66.02 65.13 64.24 65.44
63.89 64.28 64.79 65.02 65.41 65.64 64.80 65.10 64.61 65.60 66.01 66.45 66.38 66.34 66.62 66.26 66.01 65.40 65.49 64.59 64.51 64.27 64.23 64.23 63.98 65.22 65.68 65.48 63.98 64.14 64.24 64.46

GFSFLT1_sfc_wetblb_015.txt.gz
Wetbulb
58.61 57.62 56.92 57.11 58.36 65.00 70.44 70.49 70.59 70.06 69.46 69.51 70.54 70.37 70.89 71.17 69.97 68.87 68.61 67.24 66.04 66.78 65.27 67.61 65.96 69.16 64.64 65.89 64.85 64.77 64.75 64.41
58.13 57.88 58.10 58.21 58.44 58.52 69.88 70.74 70.43 69.86 69.29 68.89 69.58 69.20 69.47 69.57 69.35 67.83 67.84 66.79 66.29 65.03 64.85 65.07 64.27 63.68 62.95 63.13 63.30 63.39 64.25 64.97
58.97 59.33 59.42 59.30 58.35 60.49 66.74 70.27 70.50 69.95 67.78 69.16 69.42 68.75 68.93 68.71 68.61 68.10 67.11 66.77 64.59 64.32 63.91 64.39 64.34 64.19 63.94 64.01 63.14 63.90 64.52 63.44
58.15 58.91 58.78 58.65 58.99 59.85 64.54 68.34 70.02 69.48 68.22 68.92 69.33 69.24 68.85 68.46 68.31 68.28 67.49 66.11 64.31 64.92 65.45 65.07 63.90 64.58 63.90 63.50 63.34 63.28 62.15 62.22
58.58 58.36 58.48 59.08 60.80 60.89 65.36 66.43 68.07 68.65 68.30 67.09 69.02 69.32 69.06 68.28 67.10 68.05 68.00 66.26 65.08 65.69 64.65 64.01 64.77 64.52 63.88 63.33 63.24 63.10 62.42 62.34
58.60 59.36 58.98 61.35 60.85 61.55 64.28 68.86 68.14 68.40 67.76 68.30 68.04 68.77 68.24 67.62 66.90 68.24 67.90 66.37 66.18 65.51 64.30 63.77 65.26 64.98 64.49 63.07 62.14 62.03 61.58 61.13
58.38 59.94 60.38 61.03 61.75 60.80 64.74 67.00 68.31 68.41 67.83 67.48 68.55 67.81 66.64 66.20 65.36 65.73 67.68 67.49 67.42 65.04 64.32 63.59 65.15 64.48 63.82 63.19 62.89 61.93 60.71 60.81
57.93 58.65 60.59 59.51 60.12 63.22 64.07 64.96 68.89 69.24 69.83 68.13 68.22 68.15 65.85 65.78 64.87 64.94 66.32 66.97 67.06 65.62 64.80 64.22 64.56 63.56 63.21 62.57 61.50 61.57 60.83 60.49
57.32 59.30 60.20 59.70 59.97 62.29 63.89 66.29 69.01 70.18 69.31 68.27 66.77 65.98 64.62 64.54 65.08 66.25 66.54 66.48 66.31 64.94 64.08 64.17 63.80 62.40 61.77 61.40 60.86 60.21 59.07 59.85
57.01 57.25 58.45 59.53 59.84 64.38 66.59 68.65 69.76 69.67 69.55 68.17 66.83 65.41 64.14 64.15 65.12 64.66 65.58 64.97 64.83 65.11 63.93 63.88 62.34 61.55 61.22 60.46 59.98 58.44 58.40 58.67
54.96 55.47 55.42 58.11 65.03 66.25 68.09 69.66 69.15 68.40 69.07 68.69 66.44 64.21 63.88 63.14 63.24 63.97 64.47 65.30 64.79 64.03 63.06 62.65 62.00 61.62 60.11 59.61 59.75 58.49 55.80 57.40
56.04 55.72 54.47 63.02 65.07 66.53 66.63 68.52 68.66 68.84 68.56 66.83 64.87 62.41 61.09 61.89 61.65 63.20 64.45 64.33 64.17 63.67 63.09 62.40 61.68 60.70 59.84 59.75 60.67 58.56 57.50 55.50
54.66 55.72 58.21 64.24 65.01 64.89 65.85 67.99 67.51 68.23 67.02 65.01 62.66 61.87 62.33 62.65 62.45 61.78 62.17 62.15 62.97 63.25 62.70 62.03 61.07 60.75 60.04 59.99 59.37 58.91 58.40 56.86
57.35 62.76 63.83 63.95 65.34 66.14 67.11 66.78 66.12 65.86 65.45 63.68 62.35 62.39 61.65 61.35 60.75 61.12 61.81 61.51 61.45 61.52 62.16 61.25 60.80 60.47 60.48 60.45 59.65 59.17 59.76 58.72
60.73 61.64 62.57 64.03 65.53 66.34 66.20 64.19 64.01 64.72 63.38 63.74 62.78 61.89 61.65 60.85 60.03 60.58 60.24 60.43 60.00 59.95 60.25 60.15 60.36 61.36 61.94 61.52 59.73 59.05 59.11 59.18
60.37 60.96 62.82 64.71 65.09 64.51 63.29 62.81 62.97 62.49 63.64 63.20 63.18 61.95 61.30 61.05 60.86 61.04 60.76 60.09 59.69 59.91 60.16 60.54 61.69 62.22 62.23 61.80 60.99 60.29 60.03 59.51
60.43 61.38 63.46 63.75 63.14 62.80 62.75 62.54 62.50 62.52 63.13 63.37 61.93 62.38 62.25 61.57 61.15 60.45 60.37 60.03 60.46 59.96 60.64 60.74 61.46 61.96 62.09 60.74 59.79 59.56 60.33 59.71
60.03 61.65 62.60 62.99 62.87 63.33 62.54 62.32 62.17 62.59 63.09 62.48 62.04 62.32 62.24 61.89 61.02 60.65 59.56 59.68 61.33 60.45 60.05 60.69 61.24 62.47 62.02 60.96 59.73 61.02 60.35 60.07
60.71 61.80 62.51 62.36 63.19 62.56 62.06 61.97 62.03 62.30 62.23 61.58 61.09 61.93 61.87 61.26 60.93 60.21 59.64 59.67 59.29 59.65 60.26 61.40 61.95 61.83 61.65 60.96 60.47 60.68 60.44 60.55
61.09 61.46 61.71 61.95 61.88 62.13 61.36 61.47 61.39 61.99 62.67 61.99 61.50 60.96 61.82 60.93 60.32 61.48 59.79 58.85 59.42 59.59 60.50 61.88 63.18 62.74 60.81 60.98 60.44 60.31 60.51 60.28

GFSFLT1_sfc_wetblb_021.txt.gz
Wetbulb
56.42 56.01 55.39 57.74 65.27 66.16 67.04 66.83 65.50 66.08 65.82 66.12 68.61 68.48 68.40 68.59 67.60 66.86 67.01 67.31 66.79 67.69 65.41 66.73 68.05 70.91 68.10 68.23 67.40 66.39 63.29 62.67
56.43 56.51 56.22 55.18 58.79 65.25 67.32 67.41 66.68 64.96 65.21 65.29 66.27 67.33 67.27 67.62 67.98 67.15 67.37 66.22 64.18 63.60 63.60 63.21 65.93 65.95 65.91 64.05 63.45 62.67 62.40 63.10
55.82 56.68 56.79 56.45 54.19 60.10 65.86 67.72 67.16 66.44 64.13 64.07 65.38 66.52 66.16 66.78 67.42 67.74 67.51 65.82 64.58 62.54 62.37 62.64 63.22 63.55 63.63 62.30 61.02 60.92 61.16 61.73
54.12 54.34 54.98 55.45 56.57 55.65 63.46 67.21 67.55 67.34 65.72 63.73 64.43 65.91 65.79 66.44 67.28 67.35 67.11 65.56 63.74 62.78 62.17 62.59 62.12 62.16 62.28 61.94 61.31 60.89 61.31 61.61
54.72 55.54 55.09 56.17 57.35 57.57 58.92 66.22 67.50 67.04 66.57 65.65 65.05 65.10 65.50 66.15 66.88 67.31 66.75 65.09 63.83 63.30 63.17 62.79 62.28 62.50 62.02 61.31 61.42 61.15 60.61 60.80
55.99 55.26 54.88 56.20 56.35 55.69 56.21 64.96 66.69 66.96 67.00 66.61 66.11 66.22 65.55 65.59 66.41 66.57 66.24 65.70 64.82 63.86 64.13 63.43 63.56 62.36 61.80 61.08 60.84 60.68 62.00 59.75
54.29 56.04 57.01 56.97 56.55 56.64 55.48 60.54 65.55 66.59 66.89 66.42 66.01 66.15 66.28 65.83 65.64 65.74 65.95 65.83 65.04 64.39 63.46 63.00 62.86 62.23 61.46 61.22 60.36 59.65 58.55 58.49
55.37 56.31 56.59 55.95 55.25 55.49 55.88 61.10 64.99 66.16 65.85 63.71 64.25 64.85 65.86 65.39 65.81 65.99 66.14 65.68 65.49 63.96 63.91 62.88 62.33 61.93 61.39 60.68 60.72 59.48 59.50 58.23
54.98 55.56 55.83 55.52 55.22 55.20 55.78 60.64 62.16 64.51 63.92 63.55 63.43 64.63 64.46 64.70 65.75 66.37 66.17 65.57 65.44 65.17 63.14 62.18 62.06 61.98 61.51 60.75 59.61 58.71 58.82 60.22
53.71 54.78 55.37 54.90 55.87 55.45 55.37 58.98 62.18 64.24 65.14 65.28 63.78 65.12 63.00 63.13 64.66 65.74 66.06 65.94 65.70 63.95 62.72 61.91 61.83 60.96 60.25 59.23 58.47 56.83 57.39 58.05
52.56 53.39 53.39 54.46 53.92 54.66 55.54 58.66 63.34 64.00 63.85 63.66 62.31 62.08 62.21 61.04 62.57 63.45 64.26 64.75 64.51 63.68 62.81 62.05 61.20 60.50 59.29 58.23 57.63 57.09 55.92 54.94
51.40 52.63 52.28 51.53 53.85 53.65 56.23 60.07 63.69 64.48 64.60 63.62 63.25 61.51 61.49 60.18 62.88 61.59 62.20 63.90 63.64 63.35 62.44 61.52 60.83 59.63 58.47 57.95 58.57 57.19 55.90 54.28
49.99 51.49 51.29 51.49 53.47 60.21 62.80 64.49 64.94 65.13 64.21 63.89 62.18 60.33 59.79 60.65 61.52 60.86 62.40 61.33 62.65 62.69 62.60 61.75 59.64 58.75 58.30 58.28 58.13 57.05 56.66 55.48
51.19 57.68 59.49 60.15 64.25 64.45 64.84 65.01 64.26 64.32 63.97 62.42 62.08 60.33 60.42 60.39 60.27 59.65 59.50 59.33 60.88 62.51 61.26 59.97 59.12 58.34 58.62 58.70 58.22 57.60 57.03 55.84
56.58 55.73 59.47 62.40 63.50 63.68 64.58 64.37 61.95 61.76 61.71 61.27 61.12 60.66 60.71 60.33 59.97 59.75 58.96 59.21 58.38 58.06 59.01 58.20 57.80 58.69 58.71 58.74 58.40 57.60 56.85 56.40
57.64 59.15 60.72 62.21 62.23 62.80 63.04 61.87 60.77 60.65 61.00 59.79 59.54 59.78 60.15 60.45 60.21 59.60 58.97 58.63 58.20 58.19 58.36 58.43 58.86 59.29 59.84 59.40 58.97 58.57 57.44 57.39
59.52 60.72 60.80 60.95 60.75 60.79 60.97 60.50 59.69 59.49 59.21 59.45 59.17 59.56 59.60 59.60 58.71 58.51 58.51 58.06 58.52 58.12 58.48 58.30 58.71 59.75 59.80 59.33 58.99 58.34 58.35 57.50
60.06 60.30 60.13 59.67 60.16 59.86 60.74 60.66 59.50 59.38 59.81 60.12 59.75 58.98 59.12 58.88 58.76 58.42 58.13 57.92 57.87 58.45 57.91 57.99 58.81 59.80 60.32 59.11 58.62 57.70 57.74 57.69
59.80 59.52 59.91 60.04 59.48 60.03 60.17 60.11 59.65 59.58 59.85 59.67 59.23 58.87 58.89 58.73 58.26 57.78 57.17 57.11 57.47 58.23 58.63 58.06 58.93 59.07 59.87 58.41 58.66 58.21 58.91 57.80
59.45 59.86 59.68 59.88 59.10 59.85 59.92 59.75 59.48 59.59 59.49 59.04 58.31 58.29 58.37 57.92 57.79 57.40 57.60 57.61 57.87 58.42 58.48 58.45 59.74 59.92 59.62 59.04 59.56 59.95 58.91 59.04

GFSFLT1_sfc_wetblb_024.txt.gz
Wetbulb
56.15 55.68 57.13 61.01 65.07 65.14 65.14 65.48 66.56 66.37 66.44 65.90 67.89 68.61 68.32 68.74 68.59 68.32 68.66 68.01 68.30 69.02 67.38 68.68 68.61 70.37 69.45 70.57 69.68 68.05 66.56 64.79
54.57 55.02 55.55 55.38 56.86 64.61 65.84 65.87 65.74 65.51 65.84 64.98 65.72 67.34 67.12 67.56 67.85 67.56 67.40 67.29 66.41 67.02 66.01 65.31 66.09 67.81 68.26 67.51 66.46 66.22 65.35 64.42
55.39 55.46 55.37 55.35 55.19 58.36 63.83 65.87 65.77 65.14 64.58 64.24 64.42 65.83 66.14 66.22 66.86 67.35 67.06 66.57 65.47 65.65 65.15 63.66 63.89 65.76 66.50 65.74 64.70 64.19 63.49 63.08
54.37 53.79 53.79 54.70 55.35 55.03 57.98 65.11 66.34 66.11 64.12 64.21 63.71 64.31 65.44 65.11 65.86 67.16 67.03 66.25 64.99 64.20 63.74 63.11 63.16 63.95 64.93 65.17 63.63 62.92 62.35 62.97
53.76 55.31 54.07 54.95 55.86 55.69 54.94 61.49 66.11 66.10 65.49 64.15 63.41 63.95 64.85 64.41 65.39 66.94 67.17 65.90 64.44 64.10 63.33 62.73 63.31 63.91 63.92 63.43 63.19 63.06 62.78 62.95
54.21 54.42 54.13 54.79 54.51 54.54 54.91 59.78 64.77 65.94 66.15 65.69 64.21 63.64 64.37 64.57 65.23 66.59 66.97 65.79 64.54 63.69 62.97 62.85 63.14 63.73 63.16 63.12 62.87 62.23 62.51 62.75
53.35 54.52 54.58 54.53 54.97 54.91 54.81 56.65 62.43 65.23 66.12 66.18 65.44 64.42 64.05 64.58 65.59 66.42 66.86 65.55 64.97 64.27 63.61 63.90 64.60 64.00 63.43 62.94 62.27 62.68 62.14 61.64
53.16 53.72 54.75 55.31 54.65 54.17 54.15 54.16 58.90 63.74 65.04 64.95 64.28 64.27 65.08 64.99 64.91 65.93 66.11 65.86 65.57 64.56 64.21 64.17 64.27 63.41 62.92 62.60 62.73 62.20 62.07 61.13
52.38 53.73 54.43 54.41 53.90 54.09 54.47 54.56 58.01 64.04 64.27 63.22 62.92 63.45 64.21 64.54 65.37 65.77 65.79 65.73 65.66 64.65 64.18 63.77 63.31 63.43 63.28 63.08 62.49 61.65 61.20 61.58
51.54 53.00 52.55 52.91 54.26 54.53 54.67 54.89 60.24 64.13 64.79 63.72 63.68 63.84 63.67 64.62 65.36 65.88 66.17 65.79 65.32 64.93 64.22 63.54 63.13 62.70 62.83 62.08 61.18 59.70 60.16 60.51
50.49 50.71 51.49 52.88 52.37 53.43 54.61 54.92 59.76 63.13 63.60 63.06 62.04 62.02 62.10 62.24 63.80 64.61 65.80 65.91 65.48 65.02 64.17 63.57 62.92 63.02 62.11 61.06 60.70 59.77 58.65 58.05
49.85 51.06 51.03 52.34 52.40 52.37 53.28 55.05 59.62 62.41 63.68 63.00 62.85 60.63 60.13 61.25 63.26 63.58 64.57 65.41 65.03 64.53 63.84 63.31 62.88 62.29 61.26 60.73 60.31 59.43 58.75 57.41
48.16 49.73 50.75 50.66 51.85 51.09 52.84 56.69 61.82 63.13 63.33 62.99 62.05 60.90 60.08 61.80 62.31 62.57 63.12 63.32 64.25 63.78 63.24 63.13 62.64 61.67 61.05 60.30 59.79 59.23 58.71 58.51
47.61 48.80 58.07 59.67 63.05 62.60 63.25 62.87 62.78 63.09 63.33 62.36 61.23 60.53 60.83 60.97 61.13 60.99 60.91 61.37 62.20 62.85 63.09 62.52 61.33 60.82 60.09 60.18 60.40 59.60 59.27 58.61
46.66 55.26 58.86 62.43 62.72 63.45 63.84 63.04 61.43 61.70 61.93 61.37 61.24 61.49 61.73 60.89 61.02 60.31 60.26 60.04 60.48 61.28 60.97 60.48 60.29 60.21 60.61 60.75 60.22 59.97 59.73 58.61
54.17 57.34 61.59 62.48 62.93 62.82 61.80 61.55 60.63 61.12 60.98 60.26 60.51 61.41 61.46 61.49 61.55 61.24 60.60 59.73 59.78 60.40 60.75 60.15 59.76 60.58 60.73 60.76 60.31 60.22 59.73 59.17
58.16 60.25 62.01 61.35 60.61 60.22 60.52 60.13 59.95 59.90 59.78 60.06 59.90 60.42 60.87 60.20 59.64 60.16 59.92 59.77 59.86 59.78 59.97 59.68 60.02 60.73 61.23 61.23 60.74 60.80 60.42 59.80
59.11 60.30 59.38 59.12 59.59 59.53 59.18 59.56 59.17 59.43 59.71 60.06 59.96 59.83 60.28 60.00 60.11 59.57 59.48 59.26 59.67 59.50 59.32 59.74 60.45 61.22 61.61 61.42 60.96 60.49 60.00 59.70
59.10 59.29 58.98 58.57 59.22 59.22 58.70 59.30 59.25 59.30 59.44 59.52 59.59 59.40 59.62 59.76 59.31 59.30 59.25 58.58 58.92 59.45 59.72 59.77 60.32 60.72 61.22 60.69 60.64 60.44 59.84 59.72
59.08 58.87 58.63 58.40 58.58 58.70 58.49 58.76 59.06 59.28 59.48 59.18 58.78 59.05 59.02 58.75 58.45 58.31 58.53 58.21 59.02 59.84 60.13 60.19 60.34 60.49 61.03 60.52 60.54 61.14 59.79 60.09

GFSFLT1_sfc_wetblb_030.txt.gz
Wetbulb
63.43 64.04 64.36 65.28 66.27 67.48 72.02 74.47 74.83 74.15 72.95 71.89 71.92 72.36 72.25 71.79 70.91 72.49 71.89 70.21 71.02 69.94 69.84 70.26 70.68 71.17 71.38 72.01 72.09 71.58 71.43 70.75
63.07 63.30 64.46 65.24 65.75 66.88 68.72 73.76 74.71 74.88 73.77 72.73 72.67 71.96 72.58 71.48 71.25 73.45 72.09 71.48 72.09 70.87 69.37 70.32 70.18 67.96 70.45 71.84 71.09 72.18 71.81 71.06
64.03 64.34 64.89 65.75 65.81 67.53 68.64 71.67 74.37 74.84 74.84 74.21 73.98 72.83 72.48 72.91 72.04 72.68 72.48 70.58 71.96 71.02 70.92 69.73 70.49 70.01 69.64 70.82 70.94 71.53 71.55 71.24
63.52 63.89 64.26 65.73 66.41 67.37 68.83 69.48 73.65 74.84 74.78 75.17 74.56 74.88 73.95 73.13 72.34 71.99 73.22 71.41 72.50 69.95 70.72 69.55 69.62 69.84 69.50 70.32 70.51 70.93 70.01 70.65
62.56 63.88 64.95 66.01 66.59 68.31 69.56 70.70 72.08 75.02 75.18 74.69 74.39 73.63 73.45 72.48 72.58 74.41 72.49 73.44 72.97 71.92 69.57 69.32 68.60 70.17 71.22 70.16 70.87 70.51 70.05 70.02
62.96 63.88 65.38 66.58 67.75 68.06 69.30 68.26 68.95 73.32 75.45 74.29 73.09 72.67 72.70 72.41 72.39 72.65 72.61 72.78 72.96 72.32 69.28 69.15 69.06 69.97 69.29 68.42 69.66 68.97 69.18 69.18
63.72 64.20 65.10 65.77 66.86 68.00 68.63 69.78 69.07 72.28 73.15 72.41 73.70 75.26 72.87 72.14 72.26 72.40 72.65 71.97 71.86 71.27 69.63 69.09 72.18 68.71 68.23 68.42 67.96 68.60 68.19 69.02
61.70 62.78 63.55 64.76 66.01 69.24 70.93 70.36 72.49 71.58 70.43 72.21 71.37 71.87 72.11 72.12 71.85 71.99 72.50 72.14 71.51 71.12 70.13 70.36 70.57 68.09 67.74 67.52 68.37 68.96 70.16 70.40
60.60 61.38 62.61 63.50 65.70 69.32 70.23 70.50 73.86 70.17 68.15 68.78 70.16 70.09 71.41 71.36 71.48 72.44 72.20 71.73 71.12 71.09 70.15 69.87 69.63 68.47 68.41 69.03 68.07 69.33 70.07 70.03
59.30 60.77 61.88 63.34 66.58 68.82 70.55 70.76 71.61 70.60 68.93 71.37 71.48 71.81 71.73 71.91 71.66 72.08 72.26 70.61 71.59 71.11 70.86 70.24 69.74 67.64 68.67 69.11 69.59 67.75 69.11 69.44
58.52 59.61 61.54 62.86 64.77 67.79 68.28 70.01 70.96 70.94 71.03 70.94 72.01 72.28 72.21 71.10 71.19 69.92 69.86 71.51 70.93 71.18 71.16 70.91 69.84 68.59 67.09 68.99 71.34 68.80 68.32 66.47
58.10 58.89 60.17 62.06 62.73 64.73 66.37 68.28 68.66 68.64 71.08 72.68 73.07 70.29 69.03 70.16 70.89 69.64 71.11 71.08 70.68 70.51 70.15 70.99 70.07 68.24 69.94 70.61 70.77 69.01 68.68 65.57
57.25 58.22 59.38 60.73 61.92 63.32 66.16 67.37 70.11 69.81 70.93 73.10 71.33 71.35 71.08 71.28 70.79 70.81 69.49 70.32 70.21 70.33 71.34 70.40 69.53 69.18 71.32 70.10 69.99 69.54 68.26 65.50
57.40 59.34 60.16 60.65 61.82 62.72 66.56 69.78 71.09 69.85 70.49 71.63 72.36 72.04 72.12 70.88 71.11 66.68 67.67 68.46 69.45 70.81 70.51 70.91 71.32 71.49 71.18 70.18 69.66 69.03 67.72 66.08
57.36 58.08 59.12 61.07 64.66 67.72 69.25 70.15 69.82 69.73 70.11 70.99 71.84 72.50 72.36 72.10 67.98 68.57 69.55 68.96 69.19 70.24 71.57 71.69 71.43 71.28 70.34 69.85 69.02 67.69 66.95 65.75
60.29 59.85 59.73 62.85 66.63 68.63 69.95 69.85 69.33 69.95 70.57 71.21 72.17 72.68 71.90 71.66 71.89 71.08 70.51 70.38 70.45 71.68 71.53 71.25 70.94 70.59 69.64 68.66 67.04 66.46 67.10 66.24
62.16 60.46 65.21 67.53 69.07 70.07 70.27 70.27 70.34 70.86 71.22 71.70 71.95 72.22 72.39 71.92 72.08 72.09 70.82 71.42 70.78 71.16 71.10 70.53 69.77 68.61 68.15 68.14 66.04 66.43 66.86 67.65
60.88 64.77 67.22 68.97 70.37 70.88 71.33 71.42 70.67 71.00 71.41 71.60 71.62 72.01 72.06 71.69 71.22 70.26 70.48 70.36 70.27 70.01 69.55 68.71 67.78 67.56 67.48 67.77 66.76 67.39 67.07 68.56
63.06 64.91 67.78 69.75 70.36 70.82 70.67 70.64 70.59 70.56 70.75 70.89 70.94 70.64 70.67 70.69 70.13 70.13 70.04 70.05 69.42 68.37 67.39 66.94 66.50 66.65 67.32 67.80 67.61 66.74 65.44 66.25
62.62 64.77 68.40 68.90 69.41 69.87 69.98 70.06 69.87 70.31 70.37 70.24 69.94 69.82 69.88 69.59 69.23 69.39 69.18 68.10 67.67 66.67 66.24 65.73 65.82 66.46 67.19 66.75 66.11 66.07 64.83 64.05

GFSFLT1_sfc_wetblb_033.txt.gz
Wetbulb
67.14 66.87 67.48 67.28 69.03 70.30 71.63 76.90 77.52 76.14 74.15 72.49 74.11 73.44 72.65 72.31 72.21 71.72 72.22 69.88 70.72 70.11 70.10 69.32 70.35 71.24 70.26 71.22 71.33 71.11 70.47 70.46
64.79 64.99 65.73 66.26 66.81 67.65 69.19 71.80 76.82 77.58 74.89 73.10 72.52 73.00 73.96 72.43 72.30 73.34 72.07 70.83 71.39 72.00 70.29 70.17 71.39 70.14 70.62 70.82 70.64 71.19 70.76 71.98
65.49 65.85 66.38 67.04 66.85 67.99 69.01 70.94 76.79 77.11 77.57 74.53 74.55 74.20 73.65 74.08 73.05 73.74 73.31 71.28 71.63 70.82 71.92 70.63 71.25 70.07 69.73 71.33 71.57 72.03 72.31 71.29
64.16 64.72 65.57 66.99 67.62 68.10 68.70 69.61 77.62 77.18 76.94 77.81 77.57 77.01 75.35 74.70 74.31 75.03 74.29 72.59 72.54 71.81 72.29 71.34 71.26 70.91 70.72 70.72 71.40 71.59 71.01 71.32
63.88 65.05 67.16 66.57 67.40 68.93 72.29 72.71 74.98 77.90 78.10 77.92 76.31 74.12 75.06 73.64 74.06 76.76 76.45 74.61 73.87 73.28 72.28 71.09 71.09 71.82 73.27 72.57 73.16 71.75 70.78 70.70
64.72 65.09 66.29 68.69 69.87 70.02 72.56 69.29 72.47 76.87 77.44 76.85 75.36 73.74 72.91 73.00 73.53 74.51 76.28 76.08 75.13 74.54 71.37 71.54 72.18 71.51 71.11 69.58 69.58 68.60 70.21 69.47
65.79 64.90 66.43 67.05 68.96 70.21 70.86 72.74 70.07 75.53 76.88 74.25 74.64 76.06 73.43 72.82 73.21 73.17 76.17 75.46 74.67 74.10 72.45 72.19 73.77 71.08 70.42 69.35 69.53 69.96 68.83 68.73
63.76 64.90 65.82 66.81 70.11 71.84 72.44 71.40 73.62 75.87 73.30 75.00 71.27 70.87 72.41 73.42 72.85 73.23 76.04 75.00 73.85 74.49 72.79 72.86 72.88 70.44 69.65 69.28 70.04 69.28 69.22 68.36
63.61 64.51 64.84 65.19 69.13 70.63 72.16 72.03 74.23 72.28 68.91 68.32 68.25 67.88 71.03 72.35 73.14 76.01 75.55 74.48 74.29 74.11 72.14 72.83 72.45 70.45 70.46 71.19 70.03 70.29 68.11 69.99
61.82 63.14 65.22 67.07 68.29 69.45 70.86 72.09 73.57 73.92 70.36 71.39 70.02 72.33 71.15 72.40 73.26 75.22 74.63 73.57 73.69 73.29 72.89 72.50 72.23 69.99 72.04 71.68 70.57 67.10 67.40 70.11
61.01 61.42 64.56 66.39 67.17 68.82 69.26 71.22 72.75 74.04 73.22 72.59 73.92 73.63 73.97 72.15 72.85 72.36 73.04 73.03 72.78 73.12 72.28 73.09 73.22 71.28 68.69 71.11 69.66 69.41 66.97 68.81
59.57 60.99 62.92 65.18 66.20 67.36 69.53 70.62 72.70 73.76 75.76 71.57 73.79 70.80 69.86 71.04 72.69 72.75 72.38 72.88 71.35 72.00 71.62 71.51 71.91 70.51 71.08 69.73 70.27 70.37 70.24 67.09
58.17 59.41 60.64 62.60 65.07 67.13 69.07 71.24 72.57 73.23 73.97 72.65 70.59 72.68 71.34 72.30 72.37 72.66 72.73 72.50 72.13 70.88 71.43 71.28 71.06 70.52 71.46 71.27 72.18 71.64 69.51 67.18
58.26 59.45 61.66 61.20 62.98 63.15 67.43 70.51 71.40 72.79 73.40 74.05 74.90 74.87 74.32 72.16 72.30 70.12 70.64 70.21 70.36 70.41 70.61 70.98 71.84 71.24 73.22 71.70 72.35 70.64 69.53 68.97
57.86 58.21 58.44 60.62 61.77 62.94 63.48 65.93 69.30 72.32 71.78 72.47 72.71 74.73 76.48 75.32 71.92 69.15 68.69 68.40 68.90 69.84 71.77 71.98 71.03 73.11 72.04 71.77 70.85 70.10 68.88 67.38
59.22 59.66 59.93 60.43 62.30 66.27 68.22 69.36 70.31 71.44 71.01 71.94 72.93 74.18 72.85 72.53 71.53 69.91 69.63 69.53 70.73 72.41 72.26 72.79 71.93 71.28 70.59 70.87 69.12 68.14 68.85 66.69
60.83 62.35 62.53 61.35 64.52 69.16 70.53 70.90 71.05 71.01 71.40 71.97 73.00 72.85 74.55 71.97 73.59 74.00 71.93 73.69 71.88 71.84 71.98 71.38 70.83 70.29 70.20 70.22 67.62 67.16 68.40 68.36
62.40 62.31 63.39 67.76 70.18 71.32 71.71 71.57 71.27 71.89 72.27 72.44 72.63 73.07 73.46 72.54 73.24 70.58 71.24 72.77 72.60 71.49 70.73 70.62 70.01 69.48 68.93 68.59 67.90 67.52 67.34 69.05
62.96 66.08 68.17 70.30 71.25 71.40 71.53 71.51 71.36 71.39 71.76 71.35 71.29 70.69 70.96 71.38 70.85 71.10 71.22 71.93 70.54 69.71 69.22 68.81 68.17 67.62 67.69 67.81 67.86 67.04 66.22 66.95
63.18 66.47 68.91 69.58 70.23 70.60 70.73 71.23 71.17 71.14 70.64 70.21 69.93 70.89 70.91 71.35 70.21 70.13 70.07 69.55 69.60 68.76 68.02 67.14 66.28 66.29 67.27 67.06 66.53 66.30 65.75 65.48

GFSFLT1_sfc_wetblb_036.txt.gz
Wetbulb
65.85 65.81 66.29 66.94 69.19 69.23 72.65 75.06 74.25 72.79 71.68 72.39 72.31 70.81 70.48 70.58 69.91 69.24 69.44 68.43 67.70 68.10 66.97 67.62 69.76 71.11 69.71 70.62 70.73 70.37 69.22 68.78
65.52 66.12 67.06 69.74 66.89 66.35 72.21 75.71 76.09 75.59 74.20 73.68 73.13 71.86 70.83 69.75 69.47 69.22 68.47 68.07 67.48 67.46 67.21 67.80 67.64 68.31 67.72 68.01 68.40 68.81 68.80 69.41
66.34 67.47 69.37 72.11 72.31 72.45 72.23 75.89 76.06 76.70 77.48 75.91 73.72 72.78 72.25 70.97 70.48 70.02 69.08 69.12 67.26 67.45 68.46 68.39 67.59 68.25 67.71 67.50 68.37 68.89 69.45 69.52
65.33 67.10 68.16 69.86 71.81 76.02 73.00 73.60 77.21 76.71 75.81 76.11 76.80 74.41 73.35 73.37 71.78 71.32 70.11 69.14 68.76 68.62 67.81 68.49 69.48 68.56 68.56 67.62 68.58 68.69 69.71 70.35
63.06 65.38 66.78 70.00 70.50 73.15 72.86 73.90 78.24 76.66 75.72 76.05 75.35 75.88 73.84 73.93 73.11 73.60 71.55 71.03 69.83 68.59 69.06 68.32 67.90 69.99 69.21 68.02 68.17 70.33 70.58 69.97
64.00 66.53 67.77 70.26 69.79 69.49 70.73 68.25 72.47 76.31 75.84 75.81 75.52 74.37 74.26 73.99 73.47 74.38 74.60 72.04 70.64 71.07 69.45 69.28 69.80 68.58 68.95 69.40 68.01 68.06 68.00 68.13
64.79 66.17 67.18 69.52 70.39 71.52 73.06 73.74 73.35 76.42 76.88 75.72 75.49 74.82 74.46 73.48 73.66 73.52 74.90 73.89 71.97 70.66 70.86 70.63 70.44 69.67 69.13 67.67 68.06 68.42 67.03 68.30
64.74 66.66 67.20 68.68 71.58 72.12 73.20 73.74 74.77 75.37 75.34 74.67 72.61 72.28 71.96 72.62 72.26 72.30 74.74 74.06 73.40 71.84 71.37 70.70 72.55 68.91 68.25 68.65 67.08 67.33 67.33 67.63
63.31 65.64 65.71 69.58 70.77 71.11 72.51 72.39 72.50 72.64 71.89 70.32 69.45 68.70 69.04 70.45 72.48 74.14 75.32 74.68 73.49 72.65 71.19 72.07 70.19 69.87 68.17 68.80 67.97 66.85 66.88 68.02
62.59 62.73 64.27 69.21 69.33 70.25 71.37 72.36 72.97 72.38 70.61 69.97 70.07 70.31 69.35 69.86 72.42 74.13 75.09 74.92 73.41 72.87 72.16 70.64 71.01 69.79 69.00 69.25 67.47 65.80 67.20 67.60
60.87 62.75 66.17 68.20 67.86 69.53 69.61 69.85 70.47 70.85 70.42 70.97 71.66 71.97 72.19 72.28 73.36 73.64 73.95 74.12 73.68 72.80 72.02 71.23 71.23 69.65 68.34 68.59 68.47 66.40 64.50 66.75
59.54 61.08 62.52 65.90 67.42 68.61 70.83 70.73 69.46 69.97 71.93 70.34 70.08 67.94 67.37 70.13 73.64 73.00 72.92 73.33 73.13 72.59 72.00 71.13 72.01 69.70 69.19 68.47 68.44 67.33 66.51 65.81
58.75 59.77 60.97 63.15 63.61 63.91 65.54 66.60 68.80 69.91 70.52 70.24 69.26 70.85 70.97 72.82 72.94 74.10 72.44 73.16 72.41 71.34 71.65 70.89 71.62 69.56 69.32 68.10 68.23 67.36 67.42 67.31
57.33 59.24 60.94 61.25 63.29 65.04 66.22 68.21 68.48 70.72 70.59 72.13 71.47 70.66 69.85 71.34 72.99 71.08 70.91 70.79 70.63 69.97 70.86 70.09 70.13 68.98 69.68 69.06 68.33 68.74 68.45 67.32
57.99 57.77 58.49 60.57 62.17 63.48 66.31 69.09 69.96 70.46 70.24 70.35 71.44 69.68 73.43 73.72 72.75 70.64 69.81 68.90 68.92 68.82 69.10 69.86 68.84 70.02 70.83 70.83 69.78 68.46 67.65 66.21
58.73 60.82 61.88 60.33 61.67 64.42 65.71 66.03 67.67 68.99 69.89 71.41 72.16 71.92 73.53 74.32 71.92 70.02 68.91 68.35 68.83 69.47 70.03 69.59 70.10 70.30 70.77 70.10 68.89 67.86 67.41 66.71
58.81 59.57 62.36 61.43 62.25 65.87 66.71 67.49 67.78 70.80 72.07 71.63 72.75 73.09 74.09 72.17 71.59 69.90 69.43 69.53 69.41 69.19 70.93 70.43 70.83 70.12 69.45 68.77 67.70 67.20 67.17 66.55
59.05 61.70 63.08 65.13 67.12 70.20 71.83 72.63 71.87 71.60 72.15 72.49 72.65 73.05 73.75 72.14 71.38 70.09 70.87 71.19 70.79 70.47 70.44 70.14 69.60 69.15 68.51 68.80 67.81 67.22 66.90 66.63
64.08 62.78 64.09 68.45 70.15 71.11 71.60 71.14 71.22 70.82 70.82 71.51 72.62 72.47 72.33 72.44 71.57 71.05 71.05 71.15 70.64 69.81 69.54 68.93 68.60 68.25 68.39 67.65 67.28 66.16 65.61 65.63
64.67 65.52 66.23 67.24 69.39 70.01 70.73 70.81 70.17 69.98 70.20 69.70 69.49 69.49 69.51 69.69 69.53 69.35 69.93 69.86 69.89 69.16 68.80 67.79 67.40 67.08 67.64 66.96 66.03 65.65 64.81 65.00